Hourly Weather Roundup
Issued by NWS Central Illinois

Home | Current Version | Previous Version | Text Only | Print | Product List | Glossary On
Versions: 1 2 3 4 5 6 7 8 9 10 11 12 13 14 15 16 17 18 19 20 21 22 23 24 25 26 27 28 29 30 31 32 33 34 35 36 37 38 39 40 41 42 43 44 45 46 47 48 49 50
000
NZUS43 KILX 270310
HWRILX

AREA WEATHER ROUNDUP
NATIONAL WEATHER SERVICE, LINCOLN IL
1000 PM CDT MON SEP 26 2016


CITY           SKY/WX    TMP DP  RH WIND       PRES   REMARKS
BLOOMINGTON    CLEAR     59  38  45 W7        30.03S
CHAMPAIGN      CLEAR     54  39  57 SW7       30.04S
DANVILLE       CLEAR     49  46  87 SW5       30.01S
DECATUR        CLEAR     60  39  45 SW8       30.05S
EFFINGHAM      CLEAR     54  48  79 W5        30.09S
FLORA          CLEAR     54  49  84 W3        30.09S
GALESBURG        N/A    N/A N/A N/A MISG        N/A
JACKSONVILLE   CLEAR     56  42  59 SW7       30.06F
LACON          CLEAR     53  41  64 CALM      29.99S
LAWRENCEVILLE  CLEAR     56  47  71 SW7       30.08R
LITCHFIELD     CLEAR     50  42  73 SW6       30.08S
$$


CITY           SKY/WX    TMP DP  RH WIND       PRES   REMARKS
LINCOLN        CLEAR     58  41  53 SW3       30.03F
MACOMB         CLEAR     55  43  63 SW9       30.05S
MATTOON        CLEAR     58  40  51 SW5       30.06R
MT CARMEL AP   CLEAR     53  49  85 W5        30.08S
OLNEY-NOBLE AP CLEAR     52  52 100 CALM      30.09R
PARIS          CLEAR     53  42  67 CALM      30.06S
PEORIA         CLEAR     57  43  59 SW6       30.01F
PONTIAC        CLEAR     57  42  56 SW8       30.00S
RANTOUL        CLEAR     56  41  57 SW7       30.03S
ROBINSON       CLEAR     51  45  82 SW3       30.08S
SPRINGFIELD    CLEAR     55  42  61 SW3       30.06S
TAYLORVILLE    CLEAR     55  41  58 SW7       30.07S
$$

...REGIONAL REPORTS...


CITY           SKY/WX    TMP DP  RH WIND       PRES   REMARKS
CHICAGO O`HARE CLEAR     59  35  40 SW9       29.93F
KANKAKEE       CLEAR     52  39  62 SW6       29.99F
MOLINE         CLEAR     56  41  57 W7        29.98S
MOUNT STERLING CLEAR     55  44  65 SW5       30.06S
MOUNT VERNON   CLEAR     50  45  81 CALM      30.10S
PITTSFIELD     CLEAR     59  44  58 SW6       30.08S
QUINCY         CLEAR     54  45  71 SW6       30.06S
ROCKFORD       CLEAR     56  38  50 W9        29.95F
$$


CITY           SKY/WX    TMP DP  RH WIND       PRES   REMARKS
BURLINGTON     CLEAR     60  42  51 W8        30.02S
CEDAR RAPIDS   CLEAR     53  43  68 SW9       29.97F
DES MOINES     CLEAR     59  45  59 SW7       30.02F
KIRKSVILLE     CLEAR     57  44  62 SW6       30.08S
OTTUMWA        CLEAR     54  43  66 SW7       30.03S
ST LOUIS       CLEAR     62  44  51 SW7       30.10S
$$


CITY           SKY/WX    TMP DP  RH WIND       PRES   REMARKS
TERRE HAUTE    CLEAR     56  44  64 W5        30.06R
EVANSVILLE     CLEAR     60  47  61 W6        30.09S
INDIANAPOLIS   NOT AVBL
LAFAYETTE      CLEAR     52  44  74 W5        30.01S
MADISON        CLEAR     58  38  47 VRB5      29.87F
MILWAUKEE      CLEAR     59  38  45 W8        29.88S
$$






USA.gov is the U.S. government's official web portal to all federal, state and local government web resources and services.